Location: Degersen
(52.2871°N, 9.5716°E)
Time: 00:17:58
(UTC+00:00)

Cosmos 2082 Rocket - Pass Details

Date: 20 January 2026
Orbit: 832 x 853 km, 71.0° (Epoch: 9 February)

Event Time Altitude Azimuth Distance (km) Brightness Sun altitude
Exits shadow 05:25:59 27° 283° (WNW) 1,573 3.0 -16.8°
Maximum altitude 05:27:31 31° 254° (WSW) 1,441 2.9 -16.6°
Drops below altitude 10° 05:32:27 10° 194° (SSW) 2,471 4.6 -15.8°
Sets 05:35:07 0° 184° (S) 3,405 5.5 -15.4°
